This is the latest recevied weather packets stored in our database for station/object KM4CBK. If no packets are shown the sender has not sent any weather packets the latest 10 day(s).
| Time | Temp. | Humidity | Pressure | Rain* | Wind** | Luminosity | Snow |
|---|---|---|---|---|---|---|---|
| 1777624838 | 13.33° C | 99% | 1011.4 hPa | 0 mm | - | 0 W/m² | - |
| 1777624533 | 13.33° C | 99% | 1011.5 hPa | 0 mm | - | 0 W/m² | - |
| 1777624227 | 13.33° C | 99% | 1011.7 hPa | 0 mm | - | 0 W/m² | - |
| 1777623921 | 13.33° C | 99% | 1011.7 hPa | 0 mm | - | 0 W/m² | - |
| 1777623618 | 13.33° C | 99% | 1011.4 hPa | 0.51 mm | - | 0 W/m² | - |
| 1777623316 | 13.33° C | 99% | 1011.7 hPa | 0.51 mm | - | 0 W/m² | - |
| 1777623012 | 13.33° C | 99% | 1011.7 hPa | 0 mm | - | 0 W/m² | - |
| 1777622709 | 13.33° C | 99% | 1011.5 hPa | 0.51 mm | - | 0 W/m² | - |
| 1777622406 | 13.33° C | 99% | 1011.8 hPa | 1.27 mm | - | 0 W/m² | - |
| 1777622103 | 13.33° C | 99% | 1012 hPa | 1.27 mm | - | 0 W/m² | - |
| 1777621798 | 13.33° C | 98% | 1011.8 hPa | 0 mm | - | 0 W/m² | - |
| 1777621495 | 13.33° C | 97% | 1012 hPa | 0.51 mm | - | 0 W/m² | - |
| 1777621191 | 13.33° C | 96% | 1012 hPa | 0.51 mm | - | 0 W/m² | - |
| 1777620887 | 13.89° C | 95% | 1012 hPa | 0.51 mm | - | 0 W/m² | - |
| 1777620583 | 14.44° C | 94% | 1011.9 hPa | 1.27 mm | - | 0 W/m² | - |
| 1777620280 | 14.44° C | 92% | 1012.1 hPa | 0.51 mm | - | 0 W/m² | - |
| 1777619977 | 15° C | 87% | 1011.8 hPa | 0 mm | - | 0 W/m² | - |
| 1777619673 | 15.56° C | 82% | 1011.7 hPa | 0 mm | - | 0 W/m² | - |
| 1777619368 | 15.56° C | 82% | 1011.9 hPa | 0 mm | - | 0 W/m² | - |
| 1777619067 | 15.56° C | 82% | 1012.3 hPa | 0 mm | - | 0 W/m² | - |
| 1777618762 | 15.56° C | 84% | 1012.2 hPa | 0 mm | - | 0 W/m² | - |
| 1777618458 | 15° C | 84% | 1012.4 hPa | 0 mm | - | 0 W/m² | - |
| 1777618155 | 15.56° C | 86% | 1012.1 hPa | 0 mm | - | 0 W/m² | - |
| 1777617851 | 15.56° C | 86% | 1012 hPa | 0 mm | - | 0 W/m² | - |
| 1777617551 | 15.56° C | 86% | 1011.6 hPa | 0 mm | - | 0 W/m² | - |
* Rain latest hour (hover to see other rain measurements)
** Current wind speed in m/s (hover to see current wind gust speed)